Time,TemperatureF,DewpointF,PressureIn,WindDirection,WindDirectionDegrees,WindSpeedMPH,WindSpeedGustMPH,Humidity,HourlyPrecipIn,Conditions,Clouds,dailyrainin,SolarRadiationWatts/m^2,SoftwareType,DateUTC
2013-02-19 00:02:00,30.0,29.0,-100.00,North,350,0.0,0.0,96,0.00,,,-99.99,0.000000,,2013-02-19 05:02:00,
2013-02-19 00:32:00,30.0,29.0,-100.00,North,356,4.0,8.0,95,0.00,,,0.00,0.000000,,2013-02-19 05:32:00,
2013-02-19 00:43:00,30.0,29.0,-100.00,North,356,4.0,8.0,95,0.00,,,0.00,0.000000,,2013-02-19 05:43:00,
2013-02-19 00:52:00,30.0,29.0,-100.00,North,356,4.0,8.0,95,0.00,,,0.00,0.000000,,2013-02-19 05:52:00,
2013-02-19 01:02:00,30.0,29.0,-100.00,North,356,4.0,8.0,95,0.00,,,0.00,0.000000,,2013-02-19 06:02:00,
2013-02-19 01:11:00,30.0,29.0,-100.00,North,356,4.0,8.0,95,0.00,,,0.00,0.000000,,2013-02-19 06:11:00,
2013-02-19 01:33:00,29.0,27.0,-100.00,NNW,333,7.0,14.0,94,0.00,,,0.00,0.000000,,2013-02-19 06:33:00,
2013-02-19 01:42:00,29.0,27.0,-100.00,NNW,333,7.0,14.0,94,0.00,,,0.00,0.000000,,2013-02-19 06:42:00,
2013-02-19 01:52:00,29.0,27.0,-100.00,NNW,333,7.0,14.0,94,0.00,,,0.00,0.000000,,2013-02-19 06:52:00,
2013-02-19 02:01:00,29.0,27.0,-100.00,NNW,333,7.0,14.0,94,0.00,,,0.00,0.000000,,2013-02-19 07:01:00,
2013-02-19 02:11:00,29.0,27.0,-100.00,NNW,333,7.0,14.0,94,0.00,,,0.00,0.000000,,2013-02-19 07:11:00,
2013-02-19 02:42:00,28.0,27.0,-100.00,NNW,329,8.0,15.0,94,0.00,,,0.00,0.000000,,2013-02-19 07:42:00,
2013-02-19 02:52:00,28.0,27.0,-100.00,NNW,329,8.0,15.0,94,0.00,,,0.00,0.000000,,2013-02-19 07:52:00,
2013-02-19 03:02:00,28.0,27.0,-100.00,NNW,329,8.0,15.0,94,0.00,,,0.00,0.000000,,2013-02-19 08:02:00,
2013-02-19 03:11:00,28.0,27.0,-100.00,NNW,329,8.0,15.0,94,0.00,,,0.00,0.000000,,2013-02-19 08:11:00,
2013-02-19 03:42:00,27.0,26.0,-100.00,NW,324,8.0,16.0,94,0.00,,,-99.99,0.000000,,2013-02-19 08:42:00,
2013-02-19 03:52:00,27.0,26.0,-100.00,NW,324,8.0,16.0,94,0.00,,,-99.99,0.000000,,2013-02-19 08:52:00,
2013-02-19 04:01:00,27.0,26.0,-100.00,NW,324,8.0,16.0,94,0.00,,,-99.99,0.000000,,2013-02-19 09:01:00,
2013-02-19 04:11:00,27.0,26.0,-100.00,NW,324,8.0,16.0,94,0.00,,,-99.99,0.000000,,2013-02-19 09:11:00,
2013-02-19 04:32:00,25.0,22.0,-100.00,NW,318,13.0,22.0,90,0.00,,,0.00,0.000000,,2013-02-19 09:32:00,
2013-02-19 04:42:00,25.0,22.0,-100.00,NW,318,13.0,22.0,90,0.00,,,0.00,0.000000,,2013-02-19 09:42:00,
2013-02-19 04:53:00,25.0,22.0,-100.00,NW,318,13.0,22.0,90,0.00,,,0.00,0.000000,,2013-02-19 09:53:00,
2013-02-19 05:02:00,25.0,22.0,-100.00,NW,318,13.0,22.0,90,0.00,,,0.00,0.000000,,2013-02-19 10:02:00,
2013-02-19 05:11:00,25.0,22.0,-100.00,NW,318,13.0,22.0,90,0.00,,,0.00,0.000000,,2013-02-19 10:11:00,
2013-02-19 05:32:00,20.0,16.0,-100.00,NW,314,12.0,26.0,86,0.00,,,0.00,0.000000,,2013-02-19 10:32:00,
2013-02-19 05:42:00,20.0,16.0,-100.00,NW,314,12.0,26.0,86,0.00,,,0.00,0.000000,,2013-02-19 10:42:00,
2013-02-19 05:52:00,20.0,16.0,-100.00,NW,314,12.0,26.0,86,0.00,,,0.00,0.000000,,2013-02-19 10:52:00,
2013-02-19 06:01:00,20.0,16.0,-100.00,NW,314,12.0,26.0,86,0.00,,,0.00,0.000000,,2013-02-19 11:01:00,
2013-02-19 06:11:00,20.0,16.0,-100.00,NW,314,12.0,26.0,86,0.00,,,0.00,0.000000,,2013-02-19 11:11:00,
2013-02-19 06:12:00,18.0,14.0,-100.00,NW,316,11.0,27.0,85,0.00,,,0.00,0.000000,,2013-02-19 11:12:00,
2013-02-19 06:42:00,18.0,14.0,-100.00,NW,316,11.0,27.0,85,0.00,,,0.00,0.000000,,2013-02-19 11:42:00,
2013-02-19 06:52:00,18.0,14.0,-100.00,NW,316,11.0,27.0,85,0.00,,,0.00,0.000000,,2013-02-19 11:52:00,
2013-02-19 07:02:00,18.0,14.0,-100.00,NW,316,11.0,27.0,85,0.00,,,0.00,0.000000,,2013-02-19 12:02:00,
2013-02-19 07:32:00,18.0,13.0,-100.00,NW,318,14.0,25.0,80,0.00,,,0.00,0.000000,,2013-02-19 12:32:00,
2013-02-19 07:42:00,18.0,13.0,-100.00,NW,318,14.0,25.0,80,0.00,,,0.00,0.000000,,2013-02-19 12:42:00,
2013-02-19 07:52:00,18.0,13.0,-100.00,NW,318,14.0,25.0,80,0.00,,,0.00,0.000000,,2013-02-19 12:52:00,
2013-02-19 08:02:00,18.0,13.0,-100.00,NW,318,14.0,25.0,80,0.00,,,0.00,0.000000,,2013-02-19 13:02:00,
2013-02-19 08:11:00,18.0,13.0,-100.00,NW,318,14.0,25.0,80,0.00,,,0.00,0.000000,,2013-02-19 13:11:00,
2013-02-19 08:32:00,17.0,12.0,-100.00,NW,315,13.0,27.0,80,0.00,,,0.00,3.000000,,2013-02-19 13:32:00,
2013-02-19 08:42:00,17.0,12.0,-100.00,NW,315,13.0,27.0,80,0.00,,,0.00,3.000000,,2013-02-19 13:42:00,
2013-02-19 08:52:00,17.0,12.0,-100.00,NW,315,13.0,27.0,80,0.00,,,0.00,3.000000,,2013-02-19 13:52:00,
2013-02-19 09:01:00,17.0,12.0,-100.00,NW,315,13.0,27.0,80,0.00,,,0.00,3.000000,,2013-02-19 14:01:00,
2013-02-19 09:11:00,17.0,12.0,-100.00,NW,315,13.0,27.0,80,0.00,,,0.00,3.000000,,2013-02-19 14:11:00,
2013-02-19 09:33:00,16.0,10.0,-100.00,NW,313,14.0,29.0,78,0.00,,,0.00,44.000000,,2013-02-19 14:33:00,
2013-02-19 09:42:00,16.0,10.0,-100.00,NW,313,14.0,29.0,78,0.00,,,0.00,44.000000,,2013-02-19 14:42:00,
2013-02-19 09:52:00,16.0,10.0,-100.00,NW,313,14.0,29.0,78,0.00,,,0.00,44.000000,,2013-02-19 14:52:00,
2013-02-19 10:01:00,16.0,10.0,-100.00,NW,313,14.0,29.0,78,0.00,,,0.00,44.000000,,2013-02-19 15:01:00,
2013-02-19 10:11:00,16.0,10.0,-100.00,NW,313,14.0,29.0,78,0.00,,,0.00,44.000000,,2013-02-19 15:11:00,
2013-02-19 10:42:00,15.0,9.0,-100.00,NW,317,15.0,29.0,75,0.00,,,0.00,125.000000,,2013-02-19 15:42:00,
2013-02-19 10:52:00,15.0,9.0,-100.00,NW,317,15.0,29.0,75,0.00,,,0.00,125.000000,,2013-02-19 15:52:00,
2013-02-19 11:02:00,15.0,9.0,-100.00,NW,317,15.0,29.0,75,0.00,,,0.00,125.000000,,2013-02-19 16:02:00,
2013-02-19 11:11:00,15.0,9.0,-100.00,NW,317,15.0,29.0,75,0.00,,,0.00,125.000000,,2013-02-19 16:11:00,
2013-02-19 11:42:00,15.0,7.0,-100.00,NW,324,15.0,30.0,70,0.00,,,0.00,235.000000,,2013-02-19 16:42:00,
2013-02-19 11:52:00,15.0,7.0,-100.00,NW,324,15.0,30.0,70,0.00,,,0.00,235.000000,,2013-02-19 16:52:00,
2013-02-19 12:01:00,15.0,7.0,-100.00,NW,324,15.0,30.0,70,0.00,,,0.00,235.000000,,2013-02-19 17:01:00,
2013-02-19 12:11:00,15.0,7.0,-100.00,NW,324,15.0,30.0,70,0.00,,,0.00,235.000000,,2013-02-19 17:11:00,
2013-02-19 12:42:00,15.0,6.0,-100.00,NW,326,14.0,37.0,67,0.00,,,0.00,311.000000,,2013-02-19 17:42:00,
2013-02-19 12:52:00,15.0,6.0,-100.00,NW,326,14.0,37.0,67,0.00,,,0.00,311.000000,,2013-02-19 17:52:00,
2013-02-19 13:01:00,15.0,6.0,-100.00,NW,326,14.0,37.0,67,0.00,,,0.00,311.000000,,2013-02-19 18:01:00,
2013-02-19 13:11:00,15.0,6.0,-100.00,NW,326,14.0,37.0,67,0.00,,,0.00,311.000000,,2013-02-19 18:11:00,
2013-02-19 13:42:00,14.0,4.0,-100.00,NW,316,14.0,33.0,65,0.00,,,0.00,328.000000,,2013-02-19 18:42:00,
2013-02-19 13:52:00,14.0,4.0,-100.00,NW,316,14.0,33.0,65,0.00,,,0.00,328.000000,,2013-02-19 18:52:00,
2013-02-19 14:01:00,14.0,4.0,-100.00,NW,316,14.0,33.0,65,0.00,,,0.00,328.000000,,2013-02-19 19:01:00,
2013-02-19 14:11:00,14.0,4.0,-100.00,NW,316,14.0,33.0,65,0.00,,,0.00,328.000000,,2013-02-19 19:11:00,
2013-02-19 14:12:00,13.0,2.0,-100.00,NW,323,17.0,34.0,62,0.00,,,0.00,355.000000,,2013-02-19 19:12:00,
2013-02-19 14:32:00,13.0,2.0,-100.00,NW,323,17.0,34.0,62,0.00,,,0.00,355.000000,,2013-02-19 19:32:00,
2013-02-19 14:42:00,13.0,2.0,-100.00,NW,323,17.0,34.0,62,0.00,,,0.00,355.000000,,2013-02-19 19:42:00,
2013-02-19 14:52:00,13.0,2.0,-100.00,NW,323,17.0,34.0,62,0.00,,,0.00,355.000000,,2013-02-19 19:52:00,
2013-02-19 15:01:00,13.0,2.0,-100.00,NW,323,17.0,34.0,62,0.00,,,0.00,355.000000,,2013-02-19 20:01:00,
2013-02-19 15:42:00,13.0,3.0,-100.00,NW,316,14.0,27.0,64,0.00,,,-99.99,288.000000,,2013-02-19 20:42:00,
2013-02-19 15:52:00,13.0,3.0,-100.00,NW,316,14.0,27.0,64,0.00,,,-99.99,288.000000,,2013-02-19 20:52:00,
2013-02-19 16:02:00,13.0,3.0,-100.00,NW,316,14.0,27.0,64,0.00,,,-99.99,288.000000,,2013-02-19 21:02:00,
2013-02-19 16:11:00,13.0,3.0,-100.00,NW,316,14.0,27.0,64,0.00,,,-99.99,288.000000,,2013-02-19 21:11:00,
2013-02-19 16:42:00,11.0,0.0,-100.00,NW,326,16.0,36.0,60,0.00,,,0.00,233.000000,,2013-02-19 21:42:00,
2013-02-19 16:52:00,11.0,0.0,-100.00,NW,326,16.0,36.0,60,0.00,,,0.00,233.000000,,2013-02-19 21:52:00,
2013-02-19 17:02:00,11.0,0.0,-100.00,NW,326,16.0,36.0,60,0.00,,,0.00,233.000000,,2013-02-19 22:02:00,
2013-02-19 17:11:00,11.0,0.0,-100.00,NW,326,16.0,36.0,60,0.00,,,0.00,233.000000,,2013-02-19 22:11:00,
2013-02-19 17:42:00,10.0,3.0,-100.00,NNW,328,13.0,31.0,71,0.00,,,-99.99,111.000000,,2013-02-19 22:42:00,
2013-02-19 17:52:00,10.0,3.0,-100.00,NNW,328,13.0,31.0,71,0.00,,,-99.99,111.000000,,2013-02-19 22:52:00,
2013-02-19 18:01:00,10.0,3.0,-100.00,NNW,328,13.0,31.0,71,0.00,,,-99.99,111.000000,,2013-02-19 23:01:00,
2013-02-19 18:11:00,10.0,3.0,-100.00,NNW,328,13.0,31.0,71,0.00,,,-99.99,111.000000,,2013-02-19 23:11:00,
2013-02-19 18:32:00,9.0,1.0,-100.00,NW,317,11.0,24.0,70,0.00,,,0.00,39.000000,,2013-02-19 23:32:00,
2013-02-19 18:42:00,9.0,1.0,-100.00,NW,317,11.0,24.0,70,0.00,,,0.00,39.000000,,2013-02-19 23:42:00,
2013-02-19 18:52:00,9.0,1.0,-100.00,NW,317,11.0,24.0,70,0.00,,,0.00,39.000000,,2013-02-19 23:52:00,
2013-02-19 19:01:00,9.0,1.0,-100.00,NW,317,11.0,24.0,70,0.00,,,0.00,39.000000,,2013-02-20 00:01:00,
2013-02-19 19:11:00,9.0,1.0,-100.00,NW,317,11.0,24.0,70,0.00,,,0.00,39.000000,,2013-02-20 00:11:00,
2013-02-19 19:42:00,8.0,1.0,-100.00,NNW,327,11.0,23.0,72,0.00,,,0.00,2.000000,,2013-02-20 00:42:00,
2013-02-19 19:52:00,8.0,1.0,-100.00,NNW,327,11.0,23.0,72,0.00,,,0.00,2.000000,,2013-02-20 00:52:00,
2013-02-19 20:02:00,8.0,1.0,-100.00,NNW,327,11.0,23.0,72,0.00,,,0.00,2.000000,,2013-02-20 01:02:00,
2013-02-19 20:11:00,8.0,1.0,-100.00,NNW,327,11.0,23.0,72,0.00,,,0.00,2.000000,,2013-02-20 01:11:00,
2013-02-19 20:32:00,8.0,1.0,-100.00,NW,320,9.0,21.0,72,0.00,,,0.00,0.000000,,2013-02-20 01:32:00,
2013-02-19 20:42:00,8.0,1.0,-100.00,NW,320,9.0,21.0,72,0.00,,,0.00,0.000000,,2013-02-20 01:42:00,
2013-02-19 20:52:00,8.0,1.0,-100.00,NW,320,9.0,21.0,72,0.00,,,0.00,0.000000,,2013-02-20 01:52:00,
2013-02-19 21:01:00,8.0,1.0,-100.00,NW,320,9.0,21.0,72,0.00,,,0.00,0.000000,,2013-02-20 02:01:00,
2013-02-19 21:11:00,8.0,1.0,-100.00,NW,320,9.0,21.0,72,0.00,,,0.00,0.000000,,2013-02-20 02:11:00,
2013-02-19 21:12:00,9.0,3.0,-100.00,NW,325,10.0,23.0,77,0.00,,,0.00,0.000000,,2013-02-20 02:12:00,
2013-02-19 21:42:00,9.0,3.0,-100.00,NW,325,10.0,23.0,77,0.00,,,0.00,0.000000,,2013-02-20 02:42:00,
2013-02-19 21:52:00,9.0,3.0,-100.00,NW,325,10.0,23.0,77,0.00,,,0.00,0.000000,,2013-02-20 02:52:00,
2013-02-19 22:02:00,9.0,3.0,-100.00,NW,325,10.0,23.0,77,0.00,,,0.00,0.000000,,2013-02-20 03:02:00,
2013-02-19 22:32:00,9.0,4.0,-100.00,NNW,329,11.0,22.0,80,0.00,,,0.00,0.000000,,2013-02-20 03:32:00,
2013-02-19 22:42:00,9.0,4.0,-100.00,NNW,329,11.0,22.0,80,0.00,,,0.00,0.000000,,2013-02-20 03:42:00,
2013-02-19 22:52:00,9.0,4.0,-100.00,NNW,329,11.0,22.0,80,0.00,,,0.00,0.000000,,2013-02-20 03:52:00,
2013-02-19 23:01:00,9.0,4.0,-100.00,NNW,329,11.0,22.0,80,0.00,,,0.00,0.000000,,2013-02-20 04:01:00,
2013-02-19 23:11:00,9.0,4.0,-100.00,NNW,329,11.0,22.0,80,0.00,,,0.00,0.000000,,2013-02-20 04:11:00,
2013-02-19 23:12:00,9.0,5.0,-100.00,NNW,333,9.0,20.0,82,0.00,,,0.00,0.000000,,2013-02-20 04:12:00,
2013-02-19 23:42:00,9.0,5.0,-100.00,NNW,333,9.0,20.0,82,0.00,,,0.00,0.000000,,2013-02-20 04:42:00,
2013-02-19 23:52:00,9.0,5.0,-100.00,NNW,333,9.0,20.0,82,0.00,,,0.00,0.000000,,2013-02-20 04:52:00,